Philadelphia, PA

9:34 AM EST on November 20, 2019 (GMT -0500)
Philadelphia International

Weather History for KPHL - May, 2019

Change the Weather History Date:

Sunday, May 12, 2019

  Actual Average Record
Temperature  
Mean Temperature 50 °F 63 °F  
Max Temperature 54 °F 73 °F 91 °F (1881)
Min Temperature 46 °F 53 °F 37 °F (1962)
Degree Days  
Heating Degree Days 15 4  
Month to date heating degree days 42 63  
Since 1 July heating degree days 4327 4553  
Cooling Degree Days 0 2  
Month to date cooling degree days 9 15  
Year to date cooling degree days 33 28  
Moisture  
Dew Point 48 °F    
Average Humidity 91    
Maximum Humidity 96    
Minimum Humidity 86    
Precipitation  
Precipitation 1.02 in 0.11 in 1.58 in (1943)
Month to date precipitation 2.86 1.35  
Year to date precipitation 16.92 14.38  
Snow  
Snow 0.00 in 0.00 in 0.00 in ()
Month to date snowfall 0.0 0.0  
Since 1 July snowfall 17.1 22.4  
Snow Depth 0.00 in    
Sea Level Pressure  
Sea Level Pressure 29.86 in    
Wind  
Wind Speed 14 mph (ENE)    
Max Wind Speed 25 mph    
Max Gust Speed 34 mph    
Visibility 6 miles    
Events Rain    
T = Trace of Precipitation, MM = Missing Value Source: NWS Daily Summary

Daily Weather History Graph

Daily Weather History Graph

Search for Another Location

Airport or City:

Astronomy

May. 12, 2019 Rise Set
Actual Time 5:49 AM EDT 8:06 PM EDT
Civil Twilight 5:18 AM EDT 8:36 PM EDT
Nautical Twilight 4:41 AM EDT 9:13 PM EDT
Astronomical Twilight 4:00 AM EDT 9:54 PM EDT
Moon 1:06 PM EDT (5/12) 2:26 AM EDT (5/12)
Length of Visible Light 15h 17m
Length of Day
14h 16m
First Quarter, 57% of the Moon is Illuminated
May 12
First Quarter
May 18
Full
May 26
Last Quarter
Jun 3
New
Jun 10
First Quarter

Hourly Weather History & Observations

Time (EDT) Temp. Windchill Dew Point Humidity Pressure Visibility Wind Dir Wind Speed Gust Speed Precip Events Conditions
12:54 AM 53.1 °F - 50.0 °F 89% 29.95 in 5.0 mi ENE 4.6 mph - 0.10 in Rain Light Rain
1:36 AM 53.1 °F - 51.1 °F 93% 29.95 in 8.0 mi NNE 6.9 mph - 0.06 in   Overcast
1:50 AM 53.6 °F - 51.8 °F 94% 29.94 in 10.0 mi ENE 5.8 mph - 0.06 in   Overcast
1:54 AM 53.1 °F - 51.1 °F 93% 29.94 in 10.0 mi NE 6.9 mph - 0.06 in   Overcast
2:31 AM 53.1 °F - 51.1 °F 93% 29.92 in 5.0 mi NE 10.4 mph - 0.03 in Rain Rain
2:54 AM 53.1 °F - 51.1 °F 93% 29.91 in 5.0 mi NE 11.5 mph - 0.09 in Rain Rain
3:21 AM 53.1 °F - 51.1 °F 93% 29.90 in 5.0 mi NE 9.2 mph - 0.02 in Rain Light Rain
3:46 AM 53.1 °F - 51.1 °F 93% 29.89 in 5.0 mi ENE 10.4 mph - 0.04 in Rain Light Rain
3:54 AM 53.1 °F - 50.0 °F 89% 29.89 in 6.0 mi ENE 9.2 mph - 0.04 in Rain Light Rain
4:54 AM 53.1 °F - 50.0 °F 89% 29.88 in 6.0 mi East 12.7 mph - 0.05 in Rain Light Rain
5:26 AM 52.0 °F - 50.0 °F 93% 29.89 in 4.0 mi East 13.8 mph - 0.12 in Rain Heavy Rain
5:37 AM 52.0 °F - 50.0 °F 93% 29.89 in 5.0 mi East 15.0 mph 21.9 mph 0.13 in Rain Light Rain
5:54 AM 52.0 °F - 50.0 °F 93% 29.89 in 5.0 mi East 12.7 mph - 0.15 in Rain Light Rain
6:54 AM 52.0 °F - 50.0 °F 93% 29.88 in 6.0 mi ENE 13.8 mph 21.9 mph 0.01 in Rain Light Rain
7:08 AM 52.0 °F - 50.0 °F 93% 29.89 in 2.0 mi ENE 12.7 mph 20.7 mph 0.02 in Rain Rain
7:36 AM 52.0 °F - 50.0 °F 93% 29.87 in 5.0 mi ENE 12.7 mph 25.3 mph 0.08 in Rain Light Rain
7:54 AM 52.0 °F - 50.0 °F 93% 29.88 in 8.0 mi ENE 17.3 mph 23.0 mph 0.08 in Rain Light Rain
8:08 AM 52.0 °F - 48.9 °F 89% 29.87 in 6.0 mi ENE 16.1 mph 25.3 mph 0.00 in Rain Light Rain
8:31 AM 52.0 °F - 50.0 °F 93% 29.87 in 3.0 mi East 17.3 mph 24.2 mph 0.00 in Rain Light Rain
8:54 AM 52.0 °F - 50.0 °F 93% 29.86 in 3.0 mi East 13.8 mph 27.6 mph 0.00 in Rain Light Rain
9:03 AM 53.1 °F - 50.0 °F 89% 29.86 in 2.0 mi East 23.0 mph 28.8 mph 0.02 in Rain Rain
9:13 AM 52.0 °F - 50.0 °F 93% 29.86 in 3.0 mi East 18.4 mph 27.6 mph 0.03 in Rain Light Rain
9:29 AM 53.1 °F - 50.0 °F 89% 29.86 in 6.0 mi East 17.3 mph - 0.04 in Rain Light Rain
9:48 AM 51.8 °F - 50.0 °F 94% 29.86 in 10.0 mi ENE 12.7 mph 24.2 mph 0.04 in Rain Light Rain
9:54 AM 52.0 °F - 50.0 °F 93% 29.86 in 9.0 mi ENE 13.8 mph 24.2 mph 0.04 in Rain Light Rain
10:02 AM 52.0 °F - 50.0 °F 93% 29.86 in 5.0 mi ENE 16.1 mph 21.9 mph 0.02 in Rain Heavy Rain
10:08 AM 52.0 °F - 50.0 °F 93% 29.86 in 4.0 mi ENE 17.3 mph 27.6 mph 0.03 in Rain Light Rain
10:31 AM 52.0 °F - 50.0 °F 93% 29.86 in 2.0 mi ENE 17.3 mph 28.8 mph 0.05 in Rain Light Rain
10:54 AM 52.0 °F - 48.9 °F 89% 29.85 in 3.0 mi ENE 20.7 mph 29.9 mph 0.07 in Rain Light Rain
11:01 AM 52.0 °F - 48.9 °F 89% 29.84 in 2.5 mi ENE 15.0 mph 29.9 mph 0.01 in Rain Rain
11:11 AM 51.1 °F - 48.9 °F 92% 29.84 in 5.0 mi ENE 23.0 mph 31.1 mph 0.03 in Rain Light Rain
11:28 AM 51.1 °F - 48.9 °F 92% 29.84 in 3.0 mi East 18.4 mph 28.8 mph 0.05 in Rain Rain
11:54 AM 51.1 °F - 48.0 °F 89% 29.83 in 4.0 mi East 19.6 mph 27.6 mph 0.08 in Rain Light Rain
12:05 PM 51.1 °F - 48.0 °F 89% 29.83 in 6.0 mi ENE 19.6 mph 31.1 mph 0.01 in Rain Light Rain
12:32 PM 51.1 °F - 48.0 °F 89% 29.82 in 7.0 mi ENE 17.3 mph 32.2 mph 0.01 in Rain Light Rain
12:52 PM 51.8 °F - 48.2 °F 88% 29.82 in 10.0 mi ENE 15.0 mph 28.8 mph 0.02 in Rain Light Rain
12:54 PM 51.1 °F - 48.0 °F 89% 29.82 in 10.0 mi ENE 13.8 mph 28.8 mph 0.02 in Rain Light Rain
1:11 PM 50.0 °F - 46.9 °F 89% 29.81 in 3.0 mi ENE 16.1 mph 23.0 mph 0.00 in Rain Light Rain
1:46 PM 50.0 °F - 46.9 °F 89% 29.80 in 1.5 mi ENE 17.3 mph 23.0 mph 0.09 in Rain Heavy Rain
1:54 PM 50.0 °F - 48.0 °F 93% 29.81 in 2.5 mi ENE 13.8 mph 25.3 mph 0.14 in Rain Heavy Rain
2:25 PM 50.0 °F - 46.9 °F 89% 29.81 in 3.0 mi ENE 16.1 mph 25.3 mph 0.08 in Rain Light Rain
2:54 PM 50.0 °F - 46.9 °F 89% 29.82 in 3.0 mi ENE 16.1 mph 23.0 mph 0.14 in Rain Rain
3:03 PM 50.0 °F - 46.9 °F 89% 29.82 in 5.0 mi ENE 16.1 mph 28.8 mph 0.01 in Rain Light Rain
3:30 PM 50.0 °F - 46.9 °F 89% 29.82 in 7.0 mi ENE 12.7 mph 20.7 mph 0.03 in Rain Light Rain
3:54 PM 48.9 °F - 46.0 °F 90% 29.83 in 7.0 mi ENE 20.7 mph 29.9 mph 0.04 in Rain Light Rain
4:54 PM 48.9 °F - 45.0 °F 86% 29.82 in 7.0 mi ENE 11.5 mph 23.0 mph 0.01 in Rain Light Rain
5:54 PM 48.0 °F - 44.1 °F 86% 29.82 in 7.0 mi ENE 19.6 mph 27.6 mph 0.00 in   Overcast
6:04 PM 48.0 °F - 44.1 °F 86% 29.82 in 10.0 mi ENE 15.0 mph 26.5 mph N/A   Overcast
6:54 PM 48.0 °F - 44.1 °F 86% 29.83 in 10.0 mi NE 15.0 mph 26.5 mph N/A   Overcast
7:54 PM 46.9 °F - 44.1 °F 90% 29.84 in 10.0 mi ENE 12.7 mph 23.0 mph N/A   Overcast
8:02 PM 46.9 °F - 44.1 °F 90% 29.83 in 6.0 mi ENE 16.1 mph 25.3 mph N/A   Overcast
8:54 PM 46.9 °F - 44.1 °F 90% 29.86 in 6.0 mi ENE 11.5 mph - 0.00 in Rain Light Rain
9:17 PM 46.9 °F - 44.1 °F 90% 29.86 in 8.0 mi NE 13.8 mph 24.2 mph 0.00 in Rain Light Rain
9:54 PM 46.9 °F - 44.1 °F 90% 29.87 in 8.0 mi ENE 12.7 mph - 0.00 in Rain Light Rain
10:13 PM 46.9 °F - 44.1 °F 90% 29.87 in 10.0 mi ENE 11.5 mph - 0.00 in   Overcast
10:54 PM 46.9 °F - 44.1 °F 90% 29.88 in 10.0 mi NE 12.7 mph 19.6 mph 0.00 in   Overcast
11:29 PM 46.9 °F - 44.1 °F 90% 29.87 in 6.0 mi ENE 11.5 mph 23.0 mph N/A   Overcast
11:48 PM 46.4 °F 41.9 °F 44.6 °F 93% 29.88 in 4.0 mi NE 9.2 mph - 0.00 in   Light Drizzle
11:54 PM 46.9 °F - 44.1 °F 90% 29.88 in 4.0 mi NE 9.2 mph - 0.00 in   Light Drizzle